Waarnemingen

Advertentie
Mijn weer
Cap Corse, Frankrijk (7785): temperatuur & dauwpunt: 18.10.2017 00:00:00 - 24.10.2017 00:00:00 (CEST)Cap Corse, Frankrijk (7785): windsnelheid & windstoten: 18.10.2017 00:00:00 - 24.10.2017 00:00:00 (CEST)Cap Corse, Frankrijk (7785): windrichting: 18.10.2017 00:00:00 - 24.10.2017 00:00:00 (CEST)Cap Corse, Frankrijk (7785): luchtdruk: 18.10.2017 00:00:00 - 24.10.2017 00:00:00 (CEST)Cap Corse, Frankrijk (7785): zicht: 18.10.2017 00:00:00 - 24.10.2017 00:00:00 (CEST)Cap Corse, Frankrijk (7785): neerslag: 18.10.2017 00:00:00 - 24.10.2017 00:00:00 (CEST)
Datum & Tijd tt [°C] td [°C] ff [km/u] ff [kn] fx [km/u] fx [kn] dd ppp [hPa] vv [km] rr [mm]
24.10.2017 00:00:00 18,6 6,7 38 20 74 40 WZW 1016,6 - 0,0
23.10.2017 23:00:00 17,4 9,0 37 20 59 32 WZW 1016,4 - 0,0
23.10.2017 22:00:00 17,1 9,3 29 16 55 30 WZW 1016,4 - 0,0
23.10.2017 21:00:00 17,4 10,0 29 16 59 32 WZW 1016,1 - 0,0
23.10.2017 20:00:00 17,7 8,5 39 21 59 32 W 1016,1 - 0,0
23.10.2017 19:00:00 18,1 6,3 43 23 64 35 W 1015,4 - 0,0
23.10.2017 18:00:00 18,5 7,6 37 20 71 38 W 1014,8 - 0,0
23.10.2017 17:00:00 19,3 7,7 54 29 72 39 W 1014,1 20 0,0
23.10.2017 16:00:00 19,5 7,9 52 28 71 38 W 1014,1 - 0,0
23.10.2017 15:00:00 19,9 10,3 48 26 62 34 W 1014,3 - 0,0
23.10.2017 14:00:00 20,6 11,0 46 25 64 35 W 1014,5 20 0,0
23.10.2017 13:00:00 21,5 7,0 36 19 44 24 W 1014,9 - 0,0
23.10.2017 12:00:00 21,4 4,9 32 18 41 22 W 1015,2 - 0,0
23.10.2017 11:00:00 20,1 3,3 33 18 45 24 WNW 1015,1 25 0,0
23.10.2017 10:00:00 19,9 2,7 32 18 44 24 NW 1014,9 - 0,0
23.10.2017 09:00:00 19,3 2,6 29 16 62 33 NNW 1014,6 - 0,0
23.10.2017 08:00:00 18,1 2,0 47 26 56 30 NNW 1013,8 - 0,0
23.10.2017 07:00:00 18,2 2,9 46 25 64 35 N 1013,7 - 0,0
23.10.2017 06:00:00 18,5 1,9 49 27 60 33 N 1013,5 - 0,0
23.10.2017 05:00:00 18,2 1,6 39 21 58 31 N 1013,2 - 0,0
23.10.2017 04:00:00 18,3 3,7 37 20 51 27 N 1013,0 - 0,0
23.10.2017 03:00:00 18,3 2,6 39 21 56 30 N 1012,9 - 0,0
23.10.2017 02:00:00 18,6 2,0 41 22 54 29 N 1012,7 - 0,0
23.10.2017 01:00:00 18,9 1,8 43 23 57 31 N 1012,4 - 0,0
23.10.2017 00:00:00 19,2 6,6 38 21 54 29 NW 1012,3 - 0,0
22.10.2017 23:00:00 19,2 12,5 26 14 58 31 WNW 1011,8 - 0,0
22.10.2017 22:00:00 18,9 10,2 46 25 89 48 W 1010,9 - 0,0
22.10.2017 21:00:00 18,7 6,8 52 28 106 58 WZW 1010,8 - 0,0
22.10.2017 20:00:00 18,7 7,2 65 35 115 62 W 1010,6 - 0,0
22.10.2017 19:00:00 18,3 9,6 71 38 136 73 W 1009,6 - 0,0
22.10.2017 18:00:00 17,9 7,9 74 40 146 79 W 1010,2 - 0,0
22.10.2017 17:00:00 18,1 8,4 102 55 149 80 W 1008,8 - 0,0
22.10.2017 16:00:00 18,5 7,9 89 48 148 80 W 1010,4 - 0,0
22.10.2017 15:00:00 18,6 9,1 89 48 156 84 W 1010,5 - 0,0
22.10.2017 14:00:00 19,2 9,4 95 52 166 89 W 1010,6 - 0,0
22.10.2017 13:00:00 19,8 8,2 88 47 143 77 W 1011,6 - 0,0
22.10.2017 12:00:00 19,9 10,0 75 40 146 79 W 1013,1 - 0,0
22.10.2017 11:00:00 19,5 12,7 75 41 143 77 W 1013,0 16 0,0
22.10.2017 10:00:00 19,9 13,1 69 37 147 79 WZW 1013,7 - 0,0
22.10.2017 09:00:00 20,0 12,7 57 31 - - W 1014,1 - -
22.10.2017 08:00:00 - - - - - - - - - -
22.10.2017 07:00:00 - - - - - - - - - -
22.10.2017 06:00:00 - - - - - - - - - -
22.10.2017 05:00:00 - - - - - - - - - -
22.10.2017 04:00:00 - - - - - - - - - -
22.10.2017 03:00:00 - - - - - - - - - -
22.10.2017 02:00:00 - - - - - - - - - -
22.10.2017 01:00:00 - - - - - - - - - -
22.10.2017 00:00:00 - - - - - - - - - -
21.10.2017 23:00:00 20,4 17,4 30 16 54 29 W 1019,4 - 0,0
21.10.2017 22:00:00 20,6 17,4 29 16 51 28 WZW 1019,8 - 0,0
21.10.2017 21:00:00 20,6 17,2 22 12 41 22 WZW 1020,1 - 0,0
21.10.2017 20:00:00 20,3 16,1 22 12 40 21 ZW 1019,9 12 0,0
21.10.2017 19:00:00 20,2 16,2 15 8 32 17 ZW 1019,7 - 0,0
21.10.2017 18:00:00 21,1 15,6 16 9 30 16 ZW 1019,8 - 0,0
21.10.2017 17:00:00 22,1 15,2 10 5 26 14 W 1019,9 12 0,0
21.10.2017 16:00:00 22,7 15,5 12 7 31 17 W 1020,1 - 0,0
21.10.2017 15:00:00 22,8 15,6 19 10 29 16 W 1020,5 - 0,0
21.10.2017 14:00:00 23,4 12,7 15 8 24 13 W 1020,6 12 0,0
21.10.2017 13:00:00 23,9 11,9 13 7 25 13 W 1021,1 - 0,0
21.10.2017 12:00:00 23,7 10,7 16 8 26 14 W 1021,5 - 0,0
21.10.2017 11:00:00 24,0 10,3 10 5 22 12 ZW 1021,3 20 0,0
21.10.2017 10:00:00 22,5 10,6 14 7 28 15 ZW 1021,3 - 0,0
21.10.2017 09:00:00 20,1 12,1 19 10 34 18 ZW 1020,8 - 0,0
21.10.2017 08:00:00 18,5 15,0 21 12 37 20 ZW 1020,5 12 0,0
21.10.2017 07:00:00 18,6 15,7 21 11 42 23 WZW 1020,3 - 0,0
21.10.2017 06:00:00 18,8 15,7 23 12 41 22 WZW 1020,1 - 0,0
21.10.2017 05:00:00 18,8 15,8 23 12 39 21 WZW 1019,9 - 0,0
21.10.2017 04:00:00 18,6 15,8 20 11 36 19 ZW 1020,0 - 0,0
21.10.2017 03:00:00 18,7 15,9 16 9 35 19 WZW 1020,2 - 0,0
21.10.2017 02:00:00 18,7 16,1 18 10 36 19 WZW 1020,4 - 0,0
21.10.2017 01:00:00 18,9 15,9 11 6 27 15 ZW 1020,4 - 0,0
21.10.2017 00:00:00 19,2 16,8 18 10 30 16 WZW 1020,5 - 0,0
20.10.2017 23:00:00 18,1 15,0 18 10 28 15 WZW 1020,4 - 0,0
20.10.2017 22:00:00 18,2 15,4 9 5 14 7 WZW 1020,2 - 0,0
20.10.2017 21:00:00 18,6 14,9 3 1 11 6 W 1020,1 - 0,0
20.10.2017 20:00:00 19,2 14,2 5 3 18 10 ZW 1019,7 10 0,0
20.10.2017 19:00:00 20,2 15,6 13 7 23 12 ZW 1018,9 - 0,0
20.10.2017 18:00:00 22,3 14,9 11 6 16 9 W 1018,2 - 0,0
20.10.2017 17:00:00 23,0 16,5 8 5 17 9 OZO 1018,0 10 0,0
20.10.2017 16:00:00 23,7 16,7 10 6 23 12 OZO 1017,7 - 0,0
20.10.2017 15:00:00 24,2 16,2 6 3 21 12 O 1017,7 - 0,0
20.10.2017 14:00:00 23,9 15,1 11 6 41 22 ZZO 1017,8 10 0,0
20.10.2017 13:00:00 22,9 16,0 29 16 50 27 ZZO 1018,5 - 0,0
20.10.2017 12:00:00 22,5 16,1 34 19 58 32 ZZO 1018,8 - 0,0
20.10.2017 11:00:00 21,5 15,8 39 21 54 29 ZZO 1018,9 10 0,0
20.10.2017 10:00:00 20,7 16,1 31 17 56 31 ZO 1018,3 - 0,0
20.10.2017 09:00:00 19,1 16,7 37 20 58 32 ZO 1017,7 - 0,0
20.10.2017 08:00:00 19,1 16,0 32 17 54 29 ZO 1016,9 - 0,0
20.10.2017 07:00:00 19,0 16,0 35 19 57 31 ZO 1016,2 - 0,0
20.10.2017 06:00:00 19,3 15,2 31 17 57 31 ZO 1016,0 - 0,0
20.10.2017 05:00:00 19,5 14,5 34 18 56 30 ZO 1015,6 10 0,0
20.10.2017 04:00:00 19,7 12,9 34 19 56 30 ZO 1015,5 - 0,0
20.10.2017 03:00:00 20,0 14,1 40 21 63 34 ZZO 1015,7 - 0,0
20.10.2017 02:00:00 19,9 14,7 46 25 67 36 ZZO 1015,3 - 0,0
20.10.2017 01:00:00 20,0 14,6 44 24 74 40 ZZO 1015,1 - 0,0
20.10.2017 00:00:00 19,8 15,0 44 24 78 42 ZO 1014,9 - 0,0
19.10.2017 23:00:00 19,9 14,5 46 25 75 41 ZO 1015,1 - 0,0
19.10.2017 22:00:00 19,9 14,7 35 19 60 32 ZO 1015,6 - 0,0
19.10.2017 21:00:00 19,7 15,1 24 13 68 37 ZO 1015,4 - 0,0
19.10.2017 20:00:00 19,6 15,3 17 9 61 33 ZO 1015,1 12 0,0
19.10.2017 19:00:00 19,7 15,1 33 18 58 31 ZO 1014,9 - 0,0
19.10.2017 18:00:00 20,0 14,6 34 18 66 36 ZO 1014,9 - 0,0
19.10.2017 17:00:00 20,4 14,3 46 25 69 37 ZZO 1014,4 15 0,0
19.10.2017 16:00:00 21,4 14,8 42 23 60 32 ZZO 1014,7 - 0,0
19.10.2017 15:00:00 21,7 14,8 40 21 64 34 ZZO 1015,6 - 0,0
19.10.2017 14:00:00 21,8 14,9 37 20 60 32 ZZO 1015,8 15 0,0
19.10.2017 13:00:00 22,7 14,3 29 16 55 30 ZZO 1016,6 - 0,0
19.10.2017 12:00:00 23,0 13,2 34 18 59 32 ZZO 1016,7 - 0,0
19.10.2017 11:00:00 22,3 12,8 39 21 54 29 ZZO 1016,7 - 0,0
19.10.2017 10:00:00 21,5 13,1 33 18 56 31 ZZO 1016,6 - 0,0
19.10.2017 09:00:00 20,1 12,3 31 17 63 34 ZZO 1016,6 - 0,0
19.10.2017 08:00:00 18,9 11,9 37 20 59 32 ZZO 1015,5 - 0,0
19.10.2017 07:00:00 19,1 11,1 28 15 50 27 Z 1015,4 - 0,0
19.10.2017 06:00:00 17,8 12,0 8 4 41 22 WNW 1015,9 - 0,0
19.10.2017 05:00:00 19,2 11,7 31 17 52 28 ZZO 1015,9 12 0,0
19.10.2017 04:00:00 18,8 13,0 36 19 51 27 ZZO 1016,1 - 0,0
19.10.2017 03:00:00 18,3 11,6 7 4 46 25 WZW 1016,9 - 0,0
19.10.2017 02:00:00 17,5 10,8 2 1 7 4 W 1017,2 - 0,0
19.10.2017 01:00:00 16,7 11,4 3 1 13 7 ONO 1017,6 - 0,0
19.10.2017 00:00:00 16,2 12,2 3 1 9 5 O 1018,1 - 0,0
18.10.2017 23:00:00 16,5 13,4 3 2 5 3 W 1018,3 - 0,0
18.10.2017 22:00:00 16,4 13,1 0 0 8 5 N 1018,1 - 0,0
18.10.2017 21:00:00 17,2 13,7 6 3 15 8 W 1018,0 - 0,0
18.10.2017 20:00:00 16,9 13,2 6 4 8 4 W 1017,9 - 0,0
18.10.2017 19:00:00 17,4 13,3 3 1 9 5 W 1017,7 - 0,0
18.10.2017 18:00:00 21,1 15,2 4 2 19 10 W 1017,6 - 0,0
18.10.2017 17:00:00 21,4 15,0 11 6 16 9 W 1017,6 16 0,0
18.10.2017 16:00:00 22,2 14,8 6 3 11 6 W 1017,8 - 0,0
18.10.2017 15:00:00 22,6 14,7 7 4 15 8 WNW 1018,3 - 0,0
18.10.2017 14:00:00 21,5 14,6 6 4 13 7 NNW 1019,0 16 0,0
18.10.2017 13:00:00 21,6 15,2 9 5 15 8 W 1019,8 - 0,0
18.10.2017 12:00:00 20,9 15,4 13 7 18 10 W 1020,1 - 0,0
18.10.2017 11:00:00 20,6 14,9 7 4 13 7 W 1020,0 16 0,0
18.10.2017 10:00:00 19,6 14,8 6 3 12 6 WZW 1020,4 - 0,0
18.10.2017 09:00:00 18,0 15,8 9 5 24 13 O 1020,5 - 0,0
18.10.2017 08:00:00 16,1 14,6 8 5 16 9 ZZW 1020,6 14 0,0
18.10.2017 07:00:00 15,7 14,1 10 5 14 8 WZW 1020,7 - 0,2
18.10.2017 06:00:00 15,4 13,4 4 2 8 4 OZO 1021,1 - 0,0
18.10.2017 05:00:00 16,2 14,2 2 1 4 2 ZO 1021,1 - 0,0
18.10.2017 04:00:00 16,0 14,0 3 1 6 3 OZO 1021,2 - 0,0
18.10.2017 03:00:00 15,7 13,4 2 1 5 3 W 1021,8 - 0,0
18.10.2017 02:00:00 15,8 13,1 6 3 9 5 OZO 1022,1 - 0,0
18.10.2017 01:00:00 16,0 12,7 4 2 9 5 W 1022,4 - 0,0
18.10.2017 00:00:00 16,6 12,7 9 5 11 6 O 1022,4 - 0,0

tt = temperatuur
td = dauwpunt
ff = windsnelheid
fx = windstoten
dd = windrichting
ppp = luchtdruk
vv = zicht
rr = neerslag

Weerstations in de omgeving